HWL215 YSSY-YMML

Flight info

Callsign HWL215
Flight time N/A
Altitude 36000
Route YSSY/34R 3403S15124E WOL H65 LEECE Q29 BOOIN BOIN1A/34
Aircraft E190/M-SDE1E2E3FGHIJ3J4J7P2RWXY/LB1D1G1

Departure

Time N/A
Airport Sydney Kingsford Smith International Airport (YSSY)

Arrival

Time 2026-05-04 06:53
Airport Melbourne Airport (YMML)
Time Latitude Longitude Altitude Speed Heading
2026-05-04 06:37 -37.62587 145.33604 18349 ft 378 kts 239°
2026-05-04 06:38 -37.64100 145.30983 17171 ft 371 kts 239°
2026-05-04 06:38 -37.65606 145.28372 16013 ft 364 kts 239°
2026-05-04 06:40 -37.75303 145.11526 8847 ft 288 kts 240°
2026-05-04 06:40 -37.76431 145.09564 8835 ft 258 kts 240°
2026-05-04 06:40 -37.77452 145.07779 8840 ft 249 kts 242°
2026-05-04 06:40 -37.78448 145.06036 8839 ft 237 kts 242°
2026-05-04 06:41 -37.79389 145.04393 8641 ft 231 kts 242°
2026-05-04 06:41 -37.80293 145.02809 8350 ft 230 kts 242°
2026-05-04 06:41 -37.81200 145.01158 8060 ft 225 kts 253°
2026-05-04 06:41 -37.81630 144.99306 7794 ft 215 kts 264°
2026-05-04 06:42 -37.81955 144.97481 7167 ft 221 kts 264°
2026-05-04 06:42 -37.82296 144.95540 6271 ft 236 kts 264°
2026-05-04 06:42 -37.82615 144.93477 5386 ft 245 kts 268°
2026-05-04 06:44 -37.84874 144.83214 3061 ft 198 kts 192°
2026-05-04 06:44 -37.86221 144.83050 2886 ft 192 kts 192°
2026-05-04 06:44 -37.87535 144.82890 2698 ft 187 kts 192°
2026-05-04 06:45 -37.88840 144.82729 2530 ft 188 kts 192°
2026-05-04 06:45 -37.90149 144.82590 2384 ft 192 kts 181°
2026-05-04 06:45 -37.91401 144.83206 2374 ft 198 kts 135°
2026-05-04 06:45 -37.92084 144.84647 2373 ft 189 kts 91°
2026-05-04 06:46 -37.91902 144.86147 2370 ft 163 kts 46°
2026-05-04 06:46 -37.91108 144.87050 2377 ft 151 kts 23°
2026-05-04 06:46 -37.90224 144.87756 2394 ft 149 kts 22°
2026-05-04 06:46 -37.89299 144.88289 2454 ft 141 kts 355°
2026-05-04 06:48 -37.84898 144.87762 2468 ft 147 kts
2026-05-04 06:48 -37.83939 144.87694 2498 ft 137 kts 335°
2026-05-04 06:49 -37.83126 144.87080 2467 ft 137 kts 330°
2026-05-04 06:50 -37.76717 144.85667 2234 ft 120 kts 353°
2026-05-04 06:51 -37.75829 144.85591 2041 ft 137 kts 354°
2026-05-04 06:51 -37.74910 144.85478 1945 ft 132 kts 348°
2026-05-04 06:51 -37.74014 144.85280 1787 ft 130 kts 348°
2026-05-04 06:51 -37.73132 144.85063 1540 ft 133 kts 348°
2026-05-04 06:52 -37.72236 144.84854 1209 ft 125 kts 349°
2026-05-04 06:52 -37.71399 144.84639 977 ft 122 kts 351°
2026-05-04 06:52 -37.70549 144.84480 837 ft 122 kts 353°
2026-05-04 06:52 -37.69691 144.84332 734 ft 126 kts 353°
2026-05-04 06:53 -37.68825 144.84149 454 ft 127 kts 354°
2026-05-04 06:53 -37.67977 144.83977 358 ft 115 kts 354°
2026-05-04 06:53 -37.67368 144.83881 373 ft 54 kts 356°
2026-05-04 06:53 -37.67101 144.83838 382 ft 33 kts 356°
2026-05-04 06:54 -37.66946 144.83859 388 ft 18 kts 18°
2026-05-04 06:54 -37.66894 144.83885 390 ft 5 kts 22°
2026-05-04 06:54 -37.66884 144.83890 390 ft 0 kts 21°
2026-05-04 06:54 -37.66877 144.83894 390 ft 1 kts 21°
2026-05-04 06:55 -37.66864 144.83900 390 ft 2 kts 21°
2026-05-04 06:55 -37.66855 144.83905 390 ft 0 kts 20°
2026-05-04 06:55 -37.66854 144.83905 390 ft 1 kts 20°
2026-05-04 06:56 -37.66828 144.83919 391 ft 8 kts 21°
2026-05-04 06:57 -37.67419 144.84309 377 ft 25 kts 172°
2026-05-04 06:58 -37.67603 144.84345 372 ft 28 kts 172°
2026-05-04 06:58 -37.67812 144.84389 367 ft 32 kts 170°
2026-05-04 06:58 -37.68048 144.84428 358 ft 28 kts 170°
2026-05-04 06:58 -37.68229 144.84460 351 ft 28 kts 174°
2026-05-04 06:59 -37.68389 144.84576 347 ft 27 kts 86°
2026-05-04 06:59 -37.68404 144.84810 348 ft 27 kts 92°
2026-05-04 06:59 -37.68412 144.85042 351 ft 17 kts 95°
2026-05-04 06:59 -37.68437 144.85182 351 ft 17 kts 120°
2026-05-04 07:01 -37.68665 144.85402 347 ft 0 kts 80°